Location: Unspecified
(52.4292°N, 19.3359°E)
Time: 17:37:24
(UTC+02:00)

Transit 2A Rocket - Pass Details

Date: 23 May 2024
Orbit: 583 x 910 km, 66.7° (Epoch: 22 June)

Event Time Altitude Azimuth Distance (km) Brightness Sun altitude
Rises 04:46:45 0° 211° (SSW) 2,994 7.5 0.6°
Reaches altitude 10° 04:48:58 10° 209° (SSW) 2,130 6.8 0.9°
Maximum altitude 04:53:48 74° 125° (SE) 768 5.2 1.5°
Drops below altitude 10° 04:59:11 10° 42° (NE) 2,364 9.3 2.2°
Sets 05:01:44 0° 40° (NE) 3,350 10.1 2.5°
